Погода в Спасске-Дальнем

Россия / Приморский край     44°35′51″N   132°49′03″E
темп.,
°C
ветер,
м/с
пор.,
м/с
влажн.,
%
обл.,
%
осадки,
мм/ч
давл.,
гПа
погр.,
м
10 мая, пн
пн1001:00+7ссз3899100 0.8 1005346
04:00+7сз31097100 1.9 1006541
07:00+7сз3995100 0.1 1009471
10:00+7сз4893100 0.2 1010553
13:00+7сз4793100 0.1 1011551
16:00+7сз3694100 0.6 1012474
19:00+7сз3896100 0.8 1013443
22:00+6сз2697100 1.6 1014327
11 мая, вт
вт1101:00+6з1296100 0.3 1015114
04:00+6сз1397100 0.8 1015149
07:00+6зсз1196100 0.0 101790
10:00+8сз118756 0.0 1018328
13:00+12ссз326781 0.3 10181153
16:00+14ссз215950 0.4 10171313
19:00+14в22680 0.0 101688
22:00+9юв2275100 0.0 101814
12 мая, ср
ср1201:00+7ю3685100 0.0 1018115
04:00+7ююв3787100 0.0 1017155
07:00+7ю3987100 0.0 1017300
10:00+12ю71666100 0.0 10151148
13:00+15ююз91764100 0.0 10131386
16:00+13ююз92069100 0.0 10131419
19:00+10ю101986100 3.2 1013921
22:00+9ю81683100 3.6 1014781
13 мая, чт
чт1301:00+8ююз615870 0.0 1014540
04:00+8ююз614915 0.0 1013417
07:00+8ю513930 0.0 1014404
10:00+14ююз710732 0.0 1013606
13:00+18юз79610 0.0 1012919
16:00+19ююз78575 0.0 1011640
19:00+17юз4870100 0.0 1010296
22:00+13ю3766100 0.0 1012183
14 мая, пт
пт1401:00+10ю36705 0.0 1012119
04:00+10ю346764 0.0 101158
07:00+10ююв357111 0.0 1011102
10:00+16ююз5956100 0.0 1010561
13:00+19ююз71052100 0.0 10091123
16:00+18ююз71261100 0.0 1006925
19:00+14ююз81681100 0.1 1006714
22:00+13ю61794100 13.3 1006753